Location: Bremen
(53.0793°N, 8.8017°E)
Time: 01:20:03
(UTC+01:00)

Transit 2A - Pass Details

Date: 27 November 2022
Orbit: 593 x 963 km, 66.7° (Epoch: 05 February)

Event Time Altitude Azimuth Distance (km) Brightness Sun altitude
Rises 17:35:35 0° 320° (NW) 3,100 9.4 -11.5°
Reaches altitude 10° 17:37:50 10° 323° (NW) 2,231 8.6 -11.8°
Maximum altitude 17:42:57 68° 47° (NE) 846 6.0 -12.5°
Drops below altitude 10° 17:48:37 10° 130° (SE) 2,471 8.3 -13.4°
Sets 17:51:13 0° 133° (SE) 3,460 9.1 -13.7°
